Regional Weather Roundup
Issued by NWS State College, PA

Home | Current Version | Previous Version | Text Only | Print | Product List | Glossary Off
Versions: 1 2 3 4 5 6 7 8 9 10 11 12 13 14 15 16 17 18 19 20 21 22 23 24 25 26 27 28 29 30 31 32 33 34 35 36 37 38 39 40 41 42 43 44 45 46 47 48 49 50

000
ASUS41 KCTP 201403
RWRCTP

REGIONAL WEATHER ROUNDUP
NATIONAL WEATHER SERVICE STATE COLLEGE PA
900 AM EST MON FEB 20 2017

Note: "fair" indicates few or no clouds below 12,000 feet with no
significant weather and/or obstructions to visibility.

* = STATION THAT DOES NOT REPORT PRECIPITATION /E.G. RAIN...SNOW...ETC/
    THUNDER OR FOG.

PAZ002>004-007>009-013>016-020>023-029>032-201500-
WESTERN PENNSYLVANIA

CITY           SKY/WX    TMP DP  RH WIND       PRES   REMARKS
ERIE           CLOUDY    38  32  79 NE5       30.30S
MEADVILLE      SUNNY     38  31  76 NE5       30.27R
FRANKLIN*      SUNNY     36  30  80 CALM      30.29R
NEW CASTLE     FAIR      37  36  96 CALM      30.29R
BEAVER COUNTY  SUNNY     43  34  70 CALM      30.28R
BUTLER*        MOSUNNY   43  34  70 CALM      30.29R
PITTSBURGH INT FOG       41  41 100 CALM      30.29R VSB<1/4
PITTSBURGH     CLOUDY    44  41  89 CALM      30.29R FOG
INDIANA*       FOG       39  39 100 CALM      30.30R VSB 0
LATROBE        PTSUNNY   45  45 100 CALM      30.29R FOG
WASHINGTON CO* CLOUDY    43  43 100 CALM      30.31R
$$

PAZ004>006-010>012-017>019-024>028-033>037-041-042-045-046-049>053-201500-
CENTRAL PENNSYLVANIA

CITY           SKY/WX    TMP DP  RH WIND       PRES   REMARKS
BRADFORD       SUNNY     36  30  79 N5        30.24R
DUBOIS         SUNNY     38  30  73 NW3       30.25R
CLEARFIELD       N/A    N/A N/A N/A MISG      30.26R
JOHNSTOWN      SUNNY     43  39  86 W7        30.23R
ALTOONA        SUNNY     47  34  60 NW10      30.25R
STATE COLLEGE  SUNNY     43  30  61 N7        30.27R
WILLIAMSPORT   MOSUNNY   44  31  60 N13       30.26R
SELINSGROVE    SUNNY     45  34  65 N8        30.26R
FT INDIANTOWN  SUNNY     48  30  51 NE8       30.24R
CAPITAL CITY   SUNNY     51  30  44 NW10      30.25R
HARRISBURG     SUNNY     50  33  52 N10       30.24R
YORK           SUNNY     51  33  50 N12       30.24R
$$

PAZ038>040-043-044-047-048-054-055-060>062-067>071-201500-
EASTERN PENNSYLVANIA

CITY           SKY/WX    TMP DP  RH WIND       PRES   REMARKS
SCRANTON       MOSUNNY   38  30  73 N16       30.23R
MOUNT POCONO   MOSUNNY   35  28  75 N15G25    30.16R
ALLENTOWN      MOSUNNY   46  31  55 NW6       30.23R
QUAKERTOWN*    SUNNY     46  32  57 N8        30.22S
READING        SUNNY     47  33  58 N10       30.23R
LANCASTER      SUNNY     50  35  56 N8        30.23R
COATESVILLE    SUNNY     48  32  53 NW7       30.24R
POTTSTOWN      SUNNY     48  31  51 NW7       30.24R
BLUE BELL      SUNNY     45  32  61 N5        30.22R
DOYLESTOWN     SUNNY     48  32  53 N9        30.21R
WILLOW GROVE   NOT AVBL
NORTH PHILA    SUNNY     50  32  50 N12       30.24R
PHILADELPHIA   SUNNY     50  32  50 N14       30.23R
$$




USA.gov is the U.S. government's official web portal to all federal, state and local government web resources and services.